RH
73 73 72 71 75 78 78 79 80 83 92 93 99 94 88 90 86 80 87 88 87 83 94 81 74 34 86 74 78 85 59 27 20 22 20 21 20 21 27 22 26 38 48
74 75 78 80 80 84 89 90 87 90 96 99 100 98 94 89 85 83 82 88 92 84 86 84 70 29 71 48 82 96 99 75 54 38 42 50 46 44 61 84 85 74 76
74 75 82 86 86 86 88 95 99 100 100 99 100 99 100 94 86 87 85 86 84 89 81 80 74 38 72 82 84 97 98 94 75 71 90 92 87 76 89 91 93 94 94
74 75 80 86 90 89 91 86 96 100 100 99 100 100 100 94 87 90 88 88 85 87 88 80 77 70 79 84 82 98 92 92 95 83 90 91 96 93 91 95 94 90 87
78 79 87 98 89 95 98 89 98 98 96 97 96 92 88 93 89 89 78 88 86 89 91 87 82 67 78 81 82 89 90 89 95 90 95 93 93 93 87 88 86 85 85
98 90 90 98 99 99 99 100 95 97 91 88 97 100 99 100 99 91 90 92 90 92 90 92 86 77 78 81 92 98 88 90 95 94 96 88 86 88 87 85 86 86 87
99 100 100 97 95 96 100 100 96 96 100 100 98 99 100 100 94 96 98 94 96 97 94 93 96 94 93 94 99 97 99 99 100 98 87 85 86 91 94 92 93 94 96
100 100 100 100 94 89 82 98 100 99 99 99 99 100 100 100 100 100 99 94 90 90 100 97 100 98 100 88 99 100 100 100 100 92 92 91 89 91 89 79 94 100 100
98 97 93 100 100 100 91 91 97 100 99 100 100 97 99 99 100 100 100 91 99 97 95 100 100 97 100 89 99 100 98 97 97 97 99 100 97 92 85 85 92 98 94
99 99 100 98 100 100 100 99 98 97 100 100 100 99 98 92 99 98 100 99 96 96 97 80 86 93 92 87 97 88 92 90 95 98 99 100 100 87 99 94 78 72 68
100 100 100 98 100 98 100 100 100 99 98 98 100 100 99 94 86 91 97 98 96 99 92 88 85 89 90 84 93 88 89 87 88 87 90 97 100 100 99 100 99 86 64
99 100 99 100 96 97 95 100 99 100 100 99 100 100 100 99 96 88 86 98 98 100 100 100 100 100 100 100 99 94 100 94 89 86 84 86 94 98 98 98 100 99 95
97 100 100 100 100 100 98 99 100 98 99 99 100 100 100 100 99 100 94 98 98 100 100 100 100 99 100 99 100 100 93 90 90 91 97 96 94 94 97 98 98 97 99
98 100 99 100 100 100 99 100 100 97 99 100 100 98 100 98 99 100 100 99 100 100 99 98 100 97 99 99 98 100 99 97 95 99 96 96 94 91 97 98 99 100 100
98 100 100 98 100 100 100 100 98 100 98 100 100 94 98 93 89 94 98 99 100 99 100 99 100 100 100 100 100 100 100 100 99 99 97 93 91 76 95 98 100 100 98
99 100 98 100 97 99 100 100 100 100 99 99 100 100 96 91 94 94 92 94 98 100 100 100 100 100 99 99 100 100 100 99 98 100 97 100 93 83 95 100 98 80 38
97 98 99 100 100 100 99 100 100 98 99 98 97 99 99 99 97 88 89 94 92 99 98 100 99 100 100 100 100 100 100 100 100 100 100 99 90 88 61 71 74 55 30
96 96 98 98 98 99 99 100 100 99 100 99 100 98 99 100 99 96 96 96 100 100 96 98 97 97 99 100 100 100 100 100 100 100 100 100 100 99 86 75 50 27 22
96 96 97 96 96 98 97 98 100 100 99 100 100 98 98 99 98 99 99 100 99 99 98 97 96 96 98 100 100 99 100 100 100 100 100 100 100 100 99 75 48 25 20
96 96 96 96 96 96 97 97 97 94 93 95 95 94 93 93 94 95 98 97 98 99 99 100 100 100 99 100 100 100 100 100 100 100 99 100 100 100 99 61 22 18 17
96 96 95 94 97 92 94 96 96 96 97 96 96 94 95 94 91 92 94 96 96 95 96 97 98 98 99 99 100 100 100 100 100 100 99 99 100 99 97 50 23 18 17
96 98 95 95 94 95 97 96 91 83 85 92 92 95 96 98 98 94 93 92 90 90 93 95 94 96 97 97 97 98 98 99 99 99 99 99 98 97 96 93 51 16 18
95 97 96 94 92 97 99 87 89 81 74 70 69 72 80 86 88 86 91 94 94 93 93 93 92 93 94 96 96 96 97 97 97 97 98 97 97 96 96 72 29 20 23
62 84 91 93 91 98 94 77 76 76 82 86 86 83 77 78 81 72 74 80 85 88 90 90 92 96 95 95 96 96 96 96 96 96 96 96 97 94 70 50 31 41 39
18 17 21 33 51 75 100 81 81 75 72 71 74 85 92 98 98 94 90 84 81 86 86 75 63 65 86 94 97 96 95 95 95 95 96 95 94 90 55 35 28 42 65
22 20 18 16 16 32 97 79 39 72 74 73 75 78 98 97 100 96 87 88 92 96 92 92 90 87 74 58 54 83 93 96 95 95 94 95 94 87 80 62 29 34 51
Wind_Speed
22 22 22 23 23 24 25 26 28 31 34 38 42 40 37 35 31 29 27 24 25 27 26 23 19 26 29 27 27 26 26 26 26 25 24 24 24 23 23 22 22 22 23
21 22 21 21 22 23 24 26 28 32 34 42 48 42 41 37 32 29 28 27 25 27 27 24 22 27 33 30 29 28 27 27 28 27 28 27 26 27 27 23 22 21 21
21 22 21 22 22 22 21 20 25 36 35 48 53 42 40 40 35 28 29 30 29 28 28 27 25 29 30 31 32 31 29 29 28 28 27 25 26 27 26 24 26 24 25
21 22 21 21 21 21 20 15 13 34 42 51 42 43 39 35 34 31 31 32 32 31 30 30 30 32 34 34 34 33 31 32 30 30 30 28 31 30 29 28 26 25 23
22 21 20 19 18 19 20 22 23 22 27 33 33 39 39 36 34 33 33 34 34 33 32 33 32 36 38 38 36 35 35 34 34 33 32 33 33 31 26 24 22 20 19
24 24 22 22 21 25 26 29 28 27 30 35 35 33 33 35 35 34 35 32 36 35 35 35 35 39 40 39 40 39 37 35 38 37 36 32 29 26 24 22 21 19 18
28 28 27 25 24 24 29 31 30 31 32 34 33 30 33 34 33 34 36 37 27 36 38 35 38 44 42 42 48 43 43 43 41 37 33 31 28 27 23 21 22 21 19
29 32 31 28 27 24 24 28 30 34 33 33 32 30 19 18 33 37 34 34 31 34 36 37 45 42 44 51 44 48 46 44 37 34 31 29 27 27 22 21 22 21 22
33 26 30 36 30 29 28 30 33 34 36 37 34 22 11 10 22 24 27 19 37 29 21 37 28 53 40 39 44 35 31 31 30 30 29 28 27 24 23 21 21 21 23
26 26 30 30 30 38 39 36 37 32 34 37 34 37 24 19 20 15 22 27 22 27 30 26 24 20 30 23 24 21 26 26 27 25 25 23 21 21 19 21 24 23 20
17 20 24 26 28 31 32 37 39 37 32 34 39 40 27 21 21 20 22 28 28 36 33 31 33 35 38 34 34 28 29 25 24 22 20 20 19 20 22 18 18 19 19
14 15 17 20 23 24 28 30 33 33 36 36 42 40 37 27 24 27 25 31 33 35 38 44 49 50 48 36 38 31 33 29 26 23 19 20 19 20 22 22 21 19 20
15 14 16 17 18 23 25 25 28 29 33 35 35 33 28 26 26 29 27 34 33 31 30 36 40 37 40 38 33 32 31 30 27 24 24 21 21 22 23 22 21 20 19
14 13 15 16 18 20 22 23 24 22 24 25 21 25 22 22 11 20 25 33 31 32 34 30 31 32 36 33 35 34 35 33 28 27 26 25 24 25 25 23 22 21 21
13 12 15 15 17 16 18 19 21 22 23 24 25 24 17 16 14 11 11 21 37 31 35 30 32 41 42 41 39 35 34 31 31 30 28 31 32 26 28 27 25 24 22
14 14 13 14 14 15 15 13 15 17 17 18 18 20 23 18 17 16 14 8 17 23 30 31 34 37 37 38 37 35 34 31 30 34 34 37 33 31 33 30 28 25 22
16 15 14 15 15 14 13 14 15 16 15 15 14 14 16 17 15 15 17 17 14 17 18 23 26 28 35 39 38 36 38 35 34 38 41 40 35 33 24 29 29 24 22
19 18 17 16 15 15 15 14 15 16 16 17 17 13 11 12 14 16 16 18 16 16 15 18 18 25 29 32 36 39 40 40 39 33 38 37 36 33 27 26 26 25 24
21 20 19 19 17 17 16 15 15 15 14 13 12 11 10 10 11 13 17 18 19 20 20 19 20 21 25 29 30 31 32 36 35 34 31 36 36 32 28 25 27 27 27
23 22 22 21 19 18 17 15 14 14 13 13 12 10 8 8 8 10 10 11 12 14 15 17 19 22 24 27 27 33 31 30 31 33 34 34 36 31 32 26 26 27 28
27 25 24 24 22 18 18 17 17 17 16 16 15 14 12 9 8 6 5 8 10 9 10 10 12 15 18 21 27 33 39 38 34 32 30 29 30 28 23 24 27 27 28
19 20 22 21 24 20 16 16 14 17 17 17 18 17 16 15 14 10 8 6 5 5 7 8 8 8 9 12 15 19 27 33 34 38 36 35 32 30 24 23 28 28 28
13 14 17 17 17 20 16 16 13 14 14 15 16 15 14 14 12 10 10 8 7 6 5 4 5 6 7 8 11 14 18 21 27 31 31 32 32 28 24 26 29 30 29
9 10 10 10 11 15 11 12 11 12 12 14 14 13 12 12 9 8 8 8 8 7 6 4 3 3 5 7 9 10 12 16 21 24 23 22 26 27 27 30 31 31 31
8 7 8 8 9 9 10 10 8 9 11 12 12 13 12 15 8 7 4 4 5 4 4 5 5 4 1 2 5 9 11 14 17 19 22 23 22 19 25 31 32 31 30
7 7 7 8 9 9 11 7 7 7 8 10 10 10 11 10 9 4 5 5 5 4 1 2 2 3 3 5 5 5 6 10 13 14 18 21 19 19 21 26 30 30 31
Wind_Direction
218 219 217 216 218 222 225 228 229 228 224 213 200 199 199 203 200 201 195 195 198 194 196 197 198 188 182 180 170 165 161 159 158 162 159 153 152 148 147 142 136 132 129
221 223 222 220 217 222 229 230 234 233 227 227 202 195 198 197 197 201 199 203 200 203 200 205 200 191 183 178 175 167 167 161 155 153 147 144 144 141 137 134 135 132 129
228 227 227 226 226 222 228 235 237 235 221 208 199 195 197 195 197 203 209 208 206 209 209 204 201 185 180 180 179 174 173 163 159 156 149 155 151 145 141 140 140 133 131
229 234 231 226 221 222 212 217 209 207 203 192 187 193 197 201 208 207 205 212 210 211 212 211 201 192 187 187 187 179 174 171 170 164 161 157 156 149 148 144 144 141 141
228 233 233 228 215 206 205 190 182 191 196 187 192 197 203 208 207 205 203 215 216 213 212 211 208 201 194 194 190 185 180 180 175 169 163 155 152 154 153 155 155 155 165
226 227 228 224 208 203 203 200 209 217 212 201 201 203 201 207 207 213 213 228 223 216 215 214 208 205 202 200 192 187 183 175 170 167 166 167 169 173 174 175 179 183 186
223 225 226 220 208 210 212 216 214 210 205 205 202 209 216 211 212 214 221 228 235 221 219 215 212 204 205 209 186 192 181 171 168 170 175 182 183 187 192 193 193 192 195
222 220 217 219 215 213 215 220 212 198 203 209 200 202 181 192 208 219 224 232 235 232 227 225 220 221 204 223 181 177 172 169 172 180 186 193 193 202 216 211 201 202 204
223 224 226 211 217 219 215 204 207 209 200 197 198 198 180 192 185 187 207 219 207 215 189 195 173 198 196 166 154 159 166 178 184 192 198 200 206 215 221 211 214 214 216
233 222 213 220 219 217 203 206 203 209 214 210 208 210 216 215 188 193 194 211 212 202 212 213 221 226 183 183 185 196 185 190 193 195 198 197 201 216 204 216 221 224 220
206 211 216 224 212 226 213 207 209 217 216 215 216 211 212 212 202 198 198 207 217 214 224 229 229 224 202 214 201 198 190 196 200 202 203 202 196 186 178 176 181 183 182
204 207 206 212 211 215 227 228 219 213 211 216 211 211 215 211 205 212 210 207 205 205 195 201 198 205 198 205 193 194 196 195 202 207 199 191 186 180 178 173 170 170 170
201 195 198 198 203 202 203 214 217 215 214 216 216 213 212 210 211 207 211 199 195 197 198 189 176 188 190 189 192 195 201 204 206 206 188 193 185 186 186 181 181 181 171
196 177 189 189 196 198 196 197 200 211 224 226 225 229 226 223 214 208 208 203 195 193 193 188 179 190 195 202 202 197 203 203 204 191 187 191 190 193 193 186 181 178 183
161 175 169 176 174 184 198 202 196 202 209 221 226 229 231 225 241 257 237 213 212 195 199 196 195 193 195 196 199 199 197 189 188 192 192 198 195 207 198 192 192 187 192
138 145 160 163 162 166 170 184 188 191 198 205 203 213 228 240 228 238 255 255 239 219 199 204 200 198 197 196 194 196 194 195 195 195 195 198 199 205 208 204 208 204 212
124 128 135 143 150 164 165 174 169 172 178 183 191 193 193 198 210 224 237 243 247 241 225 221 218 201 198 196 196 197 199 199 197 198 198 205 212 218 224 221 217 218 219
114 116 116 121 125 135 145 153 157 153 162 161 162 171 178 190 198 200 204 213 218 229 234 229 229 227 217 203 195 195 196 196 200 206 208 210 218 220 224 222 226 226 225
102 106 111 112 112 116 124 128 136 137 142 145 147 159 177 179 181 190 204 212 220 227 229 232 231 232 231 224 212 202 198 193 194 192 199 204 216 220 230 231 229 228 226
99 99 98 99 99 106 110 112 117 120 123 122 122 125 135 152 164 173 175 184 204 210 215 217 218 226 230 231 227 223 215 199 194 194 199 200 205 211 230 234 230 229 227
97 98 98 95 89 94 95 103 109 112 114 114 111 110 103 106 107 123 159 176 188 194 203 209 211 216 219 222 223 224 226 221 216 213 214 215 215 214 219 229 231 233 233
109 106 100 97 91 81 98 97 100 104 104 107 108 107 108 104 103 105 111 131 151 170 194 203 211 222 229 231 235 234 230 224 222 223 229 234 237 238 233 241 244 240 235
121 124 117 106 95 81 82 99 100 104 105 102 99 97 97 93 91 94 107 113 126 138 156 179 213 224 227 231 233 236 238 236 236 237 236 237 238 237 232 234 241 241 237
135 137 136 127 108 87 85 108 105 108 111 107 103 99 96 81 70 80 82 82 80 88 100 119 157 196 226 236 231 224 226 238 243 244 244 244 240 232 235 238 236 234 235
127 131 132 133 126 108 80 125 130 131 119 114 111 108 112 105 74 75 86 74 61 54 60 70 66 51 331 228 231 237 230 228 233 239 241 244 238 243 245 244 241 239 236
114 116 118 124 127 125 96 93 141 137 131 130 130 128 114 130 107 87 105 104 102 61 55 264 259 285 324 335 334 303 273 247 235 240 240 234 229 233 240 242 243 240 238